Skip Page Navigation
NASA JPL Caltech
NASA Logo - Jet Propulsion Laboratory + View the NASA Portal
+ Center for Near-Earth Object Studies
JPL Home Earth Solar System Stars & Galaxies Technology
JPL Solar System Dynamics
BODIES ORBITS EPHEMERIDES TOOLS PHYSICAL DATA DISCOVERY FAQ SITE MAP
IMPORTANT: The SSD Announcement email list is now available. Major changes are coming in the near future, including possible hostname and/or URL changes. To be notified of such changes, subscribe to this email list.

Please visit this page for more details.


JPL Small-Body Database Browser
Search: [ help ]  
523682 (2014 CN23)
Classification: Centaur          SPK-ID: 2523682
Ephemeris | Orbit Diagram | Orbital Elements | Mission Design | Physical Parameters | Discovery Circumstances ]

[ show orbit diagram ]
Orbital Elements at Epoch 2458600.5 (2019-Apr-27.0) TDB
Reference: JPL 6 (heliocentric ecliptic J2000)
 Element Value Uncertainty (1-sigma)   Units 
e .3051001436945369 6.7517e-06  
a 16.40200586279619 0.00014508 au
q 11.39775151717843 0.00020806 au
i 14.13069965623436 5.5639e-05 deg
node 359.8021122121349 0.00020273 deg
peri 10.9321284677148 0.00089805 deg
M 256.5118059268495 0.00098796 deg
tp 2465575.306741200140
(2038-May-31.80674120)
0.095444 TDB
period 24262.96496252706
66.43
0.32191
0.0008813
d
yr
n .01483742817730653 1.9686e-07 deg/d
Q 21.40626020841394 0.00018934 au
  Orbit Determination Parameters
   # obs. used (total)      133  
   data-arc span      6225 days (17.04 yr)  
   first obs. used      2000-05-05  
   last obs. used      2017-05-21  
   planetary ephem.      DE431  
   SB-pert. ephem.      SB431-N16  
   condition code      2  
   norm. resid. RMS      .64092  
   source      ORB  
   producer      Otto Matic  
   solution date      2018-Oct-04 12:52:28  

Additional Information
 Earth MOID = 10.398 au 
 Jupiter MOID = 6.45829 au 
 T_jup = 3.596 
[ show covariance matrix ]

Ephemeris | Orbit Diagram | Orbital Elements | Mission Design | Physical Parameters | Discovery Circumstances ]

Physical Parameter Table
Parameter Symbol Value Units Sigma Reference Notes
absolute magnitude H 8.8   n/a MPO450788  

523682 (2014 CN23)          Discovered 2012-Mar-15 by Pan-STARRS 1 at Haleakala
Reference: Last Updated: 2018-10-01
Ephemeris | Orbit Diagram | Orbital Elements | Mission Design | Physical Parameters | Discovery Circumstances ]
ABOUT SSD CREDITS/AWARDS PRIVACY/COPYRIGHT GLOSSARY LINKS
FirstGov 2020-Jan-21 17:41 UT
(server date/time)  
NASA Home Page
Site Manager:   Ryan S. Park
Webmaster  Alan B. Chamberlin